Home > Weather > Toruń > Past weeks

Flag for Poland Past Weather in Toruń, Poland — Yesterday and Last 2 Weeks

Now
75 °F

Passing clouds.


Feels Like: 77 °F
Forecast: 62 / 86 °F
Wind: 2 mph from North

Location: Torun

Current Time: Jul 26, 2016 at 9:59:36 PM

Latest Report: Jul 26, 2016 at 9:00 PM


Visibility: 14 mi

Pressure: 30.04 "Hg

Humidity: 60%

Dew Point: 60 °F

Location of ToruńLocation

Past Weather in Toruń — Graph

°F

Toruń Temperature Yesterday

Maximum temperature yesterday: 83 °F (at 1:00 PM)
Minimum temperature yesterday: 64 °F (at 5:00 AM)
Average temperature yesterday: 73 °F

High & Low Weather Summary for the Past Weeks

 TemperatureHumidityPressure
High86 °F (Jul 26, 3:00 PM)97% (Jul 13, 11:00 PM)30.21 "Hg (Jul 13, 11:00 PM)
Low48 °F (Jul 22, 4:00 AM)29% (Jul 21, 5:00 PM)29.44 "Hg (Jul 14, 7:00 PM)
Average66 °F75%30.00 "Hg
* Reported Jul 11 8:00 PM — Jul 26 8:00 PM, Toruń, Weather by CustomWeather, © 2016

Note: Actual official high and low records may vary slightly from our data, if they occured in-between our weather recording intervals... More about our weather records

Advertising

Toruń Weather History for the Previous 24 Hours

Scroll right to see more
 ConditionsComfort  
Time TempWeatherWind HumidityBarometerVisibility
8:00 PM
Tue, Jul 26
78 °FPartly sunny.3 mph56%30.03 "Hg16 mi
7:00 PM81 °FPartly sunny.3 mph47%30.01 "Hg16 mi
6:00 PM85 °FPartly sunny.2 mph32%30.00 "Hg17 mi
5:00 PM86 °FPartly sunny.2 mph31%30.00 "Hg22 mi
4:00 PM86 °FPartly sunny.2 mph36%30.00 "Hg19 mi
3:00 PM86 °FOvercast.2 mph30%30.01 "Hg19 mi
2:00 PM85 °FOvercast.2 mph32%30.02 "Hg19 mi
1:00 PM83 °FOvercast.3 mph39%30.03 "Hg25 mi
12:00 PM82 °FOvercast.2 mph49%30.03 "Hg16 mi
11:00 AM81 °FOvercast.1 mph56%30.04 "Hg12 mi
10:00 AM78 °FPartly sunny.1 mph64%30.04 "Hg11 mi
9:00 AM75 °FScattered clouds.1 mph71%30.04 "Hg11 mi
8:00 AM72 °FPassing clouds.1 mph78%30.05 "Hg10 mi
7:00 AM69 °FFog.1 mph90%30.04 "Hg6 mi
6:00 AM62 °FFog.No wind97%30.04 "Hg3 mi
5:00 AM61 °FFog.No wind95%30.04 "Hg2 mi
4:00 AM62 °FFog.No wind95%30.04 "Hg2 mi
3:00 AM62 °FFog.2 mph95%30.04 "Hg2 mi
2:00 AM63 °FFog.No wind93%30.03 "Hg2 mi
1:00 AM64 °FFog.No wind92%30.03 "Hg2 mi
12:00 AM66 °FPassing clouds.1 mph90%30.04 "Hg7 mi
11:00 PM
Mon, Jul 25
66 °FPassing clouds.1 mph88%30.03 "Hg7 mi
10:00 PM69 °FPassing clouds.No wind81%30.03 "Hg11 mi
9:00 PM73 °FPassing clouds.1 mph72%30.03 "Hg16 mi
Weather by CustomWeather, © 2016

See weather overviewHow to use our weather pages